This demonstration page uses our WeatherBlox Daily Observations layout. Learn more.

Left ArrowRight Arrow

39.29038, -76.61219

Hourly Observations for January 23, 2015

Temp ( °F °C ) Dew Point ( °F °C ) Humidity (%) Winds ( mph kmh ) Pressure ( in mb ) Visibility ( mi km ) Precip ( " mm )
12:54 am 00:54 undefined 36 2.2 25 -3.9 64 64 undefined N/A 30.38 1029 N/A 0.00 0.00
1:54 am 01:54 undefined 34 1.1 25 -3.9 70 70 undefined N/A 30.38 1029 N/A 0.00 0.00
2:54 am 02:54 undefined 33 0.6 25 -3.9 72 72 undefined N/A 30.37 1029 N/A 0.00 0.00
3:54 am 03:54 undefined 32 0 25 -3.9 75 75 undefined N/A 30.37 1028 N/A 0.00 0.00
4:54 am 04:54 undefined 32 0 24 -4.4 73 73 undefined N/A 30.37 1028 N/A 0.00 0.00
5:54 am 05:54 undefined 31 -0.6 24 -4.4 76 76 undefined N/A 30.37 1028 N/A 0.00 0.00
6:54 am 06:54 undefined 31 -0.6 24 -4.4 76 76 undefined N/A 30.35 1028 N/A 0.00 0.00
7:54 am 07:54 undefined 32 0 24 -4.4 73 73 undefined N/A 30.36 1028 N/A 0.00 0.00
8:54 am 08:54 undefined 33 0.6 24 -4.4 70 70 undefined N/A 30.36 1028 N/A 0.00 0.00
9:54 am 09:54 undefined 36 2.2 23 -5 59 59 undefined N/A 30.30 1026 N/A 0.00 0.00
10:54 am 10:54 undefined 37 2.8 23 -5 57 57 undefined N/A 30.37 1029 N/A 0.00 0.00
11:54 am 11:54 undefined 38 3.3 24 -4.4 57 57 undefined N/A 30.31 1026 N/A 0.00 0.00
12:54 pm 12:54 undefined 39 3.9 25 -3.9 57 57 undefined N/A 30.28 1025 N/A 0.00 0.00
1:54 pm 13:54 undefined 39 3.9 26 -3.3 60 60 undefined N/A 30.23 1024 N/A 0.00 0.00
2:54 pm 14:54 undefined 40 4.4 26 -3.3 58 58 undefined N/A 30.18 1022 N/A 0.00 0.00
3:54 pm 15:54 undefined 39 3.9 27 -2.8 62 62 undefined N/A 30.16 1021 N/A 0.00 0.00
4:54 pm 16:54 undefined 39 3.9 27 -2.8 62 62 undefined N/A 30.14 1021 N/A 0.00 0.00
5:54 pm 17:54 undefined 39 3.9 28 -2.2 65 65 undefined N/A 30.12 1020 N/A 0.00 0.00
6:54 pm 18:54 undefined 37 2.8 30 -1.1 76 76 undefined N/A 30.09 1019 N/A 0.01 0.25
7:54 pm 19:54 undefined 34 1.1 32 0 92 92 undefined N/A 30.06 1018 N/A 0.03 0.76
9:54 pm 21:54 undefined 34 1.1 32 0 92 92 undefined N/A 30.02 1017 N/A 0.07 1.78
10:54 pm 22:54 undefined 34 1.1 33 0.6 97 97 undefined N/A 29.96 1015 N/A 0.13 3.30
11:54 pm 23:54 undefined 33 0.6 33 0.6 100 100 undefined N/A 29.89 1012 N/A 0.11 2.79

Powered by AerisWeather